map of HND home
Great Circle Mapper logo
HND - Airport
Location
City:  Tokyo, Honshu, Japan
Name:Haneda
ICAO / IATA:RJTT / HND

Details
Type:Airport (Aerodrome, Airfield)
Use:Public/Civil, International (customs port of entry)
Latitude:35°33'12"N (35.553333)
Longitude:139°46'52"E (139.781111)
Elevation:21 ft (6 m)
Variation:7.27°W (WMM2015 magnetic declination)
-0.06° annual change
Runways:4
Longest:9843 × 197 ft (3000 × 60 m), paved

Time
Time Zone:UTC+9
Local Time:

Weather
METAR:RJTT 291630Z 02008KT 9999 FEW015 13/09 Q1013 NOSIG RMK 1CU015 A2993
TAF:RJTT 291109Z 2912/3018 25010KT 9999 FEW020 SCT060
BECMG 2914/2916 35010KT
BECMG 3000/3003 10008KT
BECMG 3003/3006 18014KT

Related Locations
Nearby:
Farthest:SNPV: 11755 mi / 18917 km
Mostardas [Solidão], RS, BR

Find:

   beyond  
but within

Other Information
Maps:
NOTAMs:
Links:
Sources:

  
flag of Japan
flag of Tokyo
  

Airport Diagram

Airport diagram for HND

Airport diagram (OBSOLETE) from NGA

Sectional Chart

Flight Planning
at skyvector.com

Satellite Image

Google Maps Satellite View

 

Copyright © 2004-2015 Karl L. Swartz. All rights reserved.
The Great Circle Mapper name and logo are trademarks of the Great Circle Mapper.
All other trademarks mentioned herein belong to their respective owners.
Please see credits for attibutions and further copyright information.

  Follow gcmap on Facebook Follow gcmap on Twitter Follow gcmap on Google+

hCard Microformat

Geo Microformat